Time,TemperatureF,DewpointF,PressureIn,WindDirection,WindDirectionDegrees,WindSpeedMPH,WindSpeedGustMPH,Humidity,HourlyPrecipIn,Conditions,Clouds,dailyrainin,SoftwareType,DateUTC
2013-08-18 00:00:00,57.7,41.2,29.85,East,95,5.0,5.0,54,0.00,,,0.00,Wunderground v.1.15,2013-08-18 06:00:00,
2013-08-18 00:10:00,57.2,41.2,29.86,ENE,57,3.0,3.0,55,0.00,,,0.00,Wunderground v.1.15,2013-08-18 06:10:00,
2013-08-18 00:19:00,56.8,41.3,29.86,East,96,3.0,3.0,56,0.00,,,0.00,Wunderground v.1.15,2013-08-18 06:19:00,
2013-08-18 00:24:00,56.5,41.0,29.85,East,82,4.0,6.0,56,0.00,,,0.00,Wunderground v.1.15,2013-08-18 06:24:00,
2013-08-18 00:29:00,56.2,41.2,29.85,East,91,5.0,6.0,57,0.00,,,0.00,Wunderground v.1.15,2013-08-18 06:29:00,
2013-08-18 00:35:00,55.4,41.3,29.85,East,84,4.0,6.0,59,0.00,,,0.00,Wunderground v.1.15,2013-08-18 06:35:00,
2013-08-18 00:40:00,54.8,41.2,29.85,ENE,68,4.0,4.0,60,0.00,,,0.00,Wunderground v.1.15,2013-08-18 06:40:00,
2013-08-18 00:49:00,54.9,40.8,29.85,ENE,69,5.0,5.0,59,0.00,,,0.00,Wunderground v.1.15,2013-08-18 06:49:00,
2013-08-18 00:54:00,55.1,41.0,29.85,ENE,69,6.0,6.0,59,0.00,,,0.00,Wunderground v.1.15,2013-08-18 06:54:00,
2013-08-18 01:00:00,55.1,41.0,29.85,ENE,72,7.0,7.0,59,0.00,,,0.00,Wunderground v.1.15,2013-08-18 07:00:00,
2013-08-18 01:10:00,54.6,41.0,29.86,East,91,6.0,7.0,60,0.00,,,0.00,Wunderground v.1.15,2013-08-18 07:10:00,
2013-08-18 01:15:00,54.8,41.2,29.86,ENE,77,5.0,7.0,60,0.00,,,0.00,Wunderground v.1.15,2013-08-18 07:15:00,
2013-08-18 01:20:00,54.8,40.7,29.86,ESE,105,5.0,5.0,59,0.00,,,0.00,Wunderground v.1.15,2013-08-18 07:20:00,
2013-08-18 01:25:00,54.5,40.9,29.86,East,99,5.0,5.0,60,0.00,,,0.00,Wunderground v.1.15,2013-08-18 07:25:00,
2013-08-18 01:35:00,53.9,40.8,29.86,East,82,3.0,5.0,61,0.00,,,0.00,Wunderground v.1.15,2013-08-18 07:35:00,
2013-08-18 01:40:00,53.8,40.7,29.86,ESE,107,4.0,4.0,61,0.00,,,0.00,Wunderground v.1.15,2013-08-18 07:40:00,
2013-08-18 01:50:00,53.6,40.5,29.86,ENE,70,7.0,7.0,61,0.00,,,0.00,Wunderground v.1.15,2013-08-18 07:50:00,
2013-08-18 01:55:00,53.5,40.4,29.86,ENE,63,6.0,7.0,61,0.00,,,0.00,Wunderground v.1.15,2013-08-18 07:55:00,
2013-08-18 02:00:00,53.6,40.5,29.86,East,95,7.0,7.0,61,0.00,,,0.00,Wunderground v.1.15,2013-08-18 08:00:00,
2013-08-18 02:09:00,53.2,40.5,29.86,East,85,5.0,8.0,62,0.00,,,0.00,Wunderground v.1.15,2013-08-18 08:09:00,
2013-08-18 02:14:00,53.0,40.3,29.86,East,92,6.0,8.0,62,0.00,,,0.00,Wunderground v.1.15,2013-08-18 08:14:00,
2013-08-18 02:19:00,52.9,40.2,29.86,East,86,6.0,6.0,62,0.00,,,0.00,Wunderground v.1.15,2013-08-18 08:19:00,
2013-08-18 02:29:00,52.4,40.2,29.87,East,80,3.0,9.0,63,0.00,,,0.00,Wunderground v.1.15,2013-08-18 08:29:00,
2013-08-18 02:39:00,51.8,40.8,29.88,ESE,103,2.0,2.0,66,0.00,,,0.00,Wunderground v.1.15,2013-08-18 08:39:00,
2013-08-18 02:44:00,51.2,40.2,29.88,South,169,1.0,2.0,66,0.00,,,0.00,Wunderground v.1.15,2013-08-18 08:44:00,
2013-08-18 02:49:00,50.7,40.1,29.88,South,169,0.0,0.0,67,0.00,,,0.00,Wunderground v.1.15,2013-08-18 08:49:00,
2013-08-18 02:54:00,50.3,40.5,29.88,ESE,107,0.0,0.0,69,0.00,,,0.00,Wunderground v.1.15,2013-08-18 08:54:00,
2013-08-18 03:00:00,50.0,40.2,29.87,ESE,107,0.0,0.0,69,0.00,,,0.00,Wunderground v.1.15,2013-08-18 09:00:00,
2013-08-18 03:09:00,49.9,40.1,29.87,ESE,109,1.0,2.0,69,0.00,,,0.00,Wunderground v.1.15,2013-08-18 09:09:00,
2013-08-18 03:15:00,49.7,39.9,29.87,SSE,158,1.0,2.0,69,0.00,,,0.00,Wunderground v.1.15,2013-08-18 09:15:00,
2013-08-18 03:20:00,49.6,40.2,29.88,ENE,59,1.0,1.0,70,0.00,,,0.00,Wunderground v.1.15,2013-08-18 09:20:00,
2013-08-18 03:25:00,49.3,39.9,29.88,ENE,59,0.0,1.0,70,0.00,,,0.00,Wunderground v.1.15,2013-08-18 09:25:00,
2013-08-18 03:30:00,49.0,40.0,29.88,SSE,151,0.0,0.0,71,0.00,,,0.00,Wunderground v.1.15,2013-08-18 09:30:00,
2013-08-18 03:39:00,48.7,40.1,29.88,South,190,1.0,2.0,72,0.00,,,0.00,Wunderground v.1.15,2013-08-18 09:39:00,
2013-08-18 03:44:00,48.6,40.0,29.88,East,98,1.0,2.0,72,0.00,,,0.00,Wunderground v.1.15,2013-08-18 09:44:00,
2013-08-18 03:50:00,48.5,39.9,29.88,SSE,159,1.0,1.0,72,0.00,,,0.00,Wunderground v.1.15,2013-08-18 09:50:00,
2013-08-18 03:55:00,48.3,39.7,29.88,SSE,159,0.0,1.0,72,0.00,,,0.00,Wunderground v.1.15,2013-08-18 09:55:00,
2013-08-18 04:00:00,48.0,39.8,29.88,SSE,159,0.0,0.0,73,0.00,,,0.00,Wunderground v.1.15,2013-08-18 10:00:00,
2013-08-18 04:09:00,47.7,39.8,29.88,South,170,0.0,0.0,74,0.00,,,0.00,Wunderground v.1.15,2013-08-18 10:09:00,
2013-08-18 04:15:00,47.5,39.6,29.88,South,170,0.0,0.0,74,0.00,,,0.00,Wunderground v.1.15,2013-08-18 10:15:00,
2013-08-18 04:24:00,47.2,39.3,29.88,South,170,0.0,2.0,74,0.00,,,0.00,Wunderground v.1.15,2013-08-18 10:24:00,
2013-08-18 04:29:00,47.1,39.2,29.88,SSW,205,1.0,1.0,74,0.00,,,0.00,Wunderground v.1.15,2013-08-18 10:29:00,
2013-08-18 04:35:00,47.0,39.5,29.88,ESE,121,1.0,1.0,75,0.00,,,0.00,Wunderground v.1.15,2013-08-18 10:35:00,
2013-08-18 04:40:00,46.9,39.4,29.88,SSE,159,0.0,0.0,75,0.00,,,0.00,Wunderground v.1.15,2013-08-18 10:40:00,
2013-08-18 04:50:00,46.7,39.5,29.88,South,179,0.0,0.0,76,0.00,,,0.00,Wunderground v.1.15,2013-08-18 10:50:00,
2013-08-18 05:00:00,46.5,39.3,29.88,South,179,0.0,1.0,76,0.00,,,0.00,Wunderground v.1.15,2013-08-18 11:00:00,
2013-08-18 05:09:00,46.4,39.6,29.88,SSW,213,1.0,1.0,77,0.00,,,0.00,Wunderground v.1.15,2013-08-18 11:09:00,
2013-08-18 05:14:00,46.5,39.7,29.88,SW,227,1.0,1.0,77,0.00,,,0.00,Wunderground v.1.15,2013-08-18 11:14:00,
2013-08-18 05:19:00,46.4,39.6,29.88,SW,227,1.0,1.0,77,0.00,,,0.00,Wunderground v.1.15,2013-08-18 11:19:00,
2013-08-18 05:29:00,46.7,39.9,29.89,NE,52,1.0,1.0,77,0.00,,,0.00,Wunderground v.1.15,2013-08-18 11:29:00,
2013-08-18 05:39:00,46.5,39.7,29.89,SSW,203,1.0,1.0,77,0.00,,,0.00,Wunderground v.1.15,2013-08-18 11:39:00,
2013-08-18 05:44:00,46.3,39.8,29.89,SSW,203,1.0,2.0,78,0.00,,,0.00,Wunderground v.1.15,2013-08-18 11:44:00,
2013-08-18 05:49:00,46.2,39.7,29.89,SSW,203,1.0,1.0,78,0.00,,,0.00,Wunderground v.1.15,2013-08-18 11:49:00,
2013-08-18 05:54:00,46.1,39.6,29.89,SSW,203,1.0,1.0,78,0.00,,,0.00,Wunderground v.1.15,2013-08-18 11:54:00,
2013-08-18 06:00:00,46.1,39.6,29.89,NE,34,0.0,0.0,78,0.00,,,0.00,Wunderground v.1.15,2013-08-18 12:00:00,
2013-08-18 06:09:00,46.1,39.9,29.89,ESE,116,0.0,0.0,79,0.00,,,0.00,Wunderground v.1.15,2013-08-18 12:09:00,
2013-08-18 06:15:00,46.0,39.9,29.89,SSE,150,0.0,2.0,79,0.00,,,0.00,Wunderground v.1.15,2013-08-18 12:15:00,
2013-08-18 06:20:00,45.9,39.8,29.90,SSW,196,1.0,1.0,79,0.00,,,0.00,Wunderground v.1.15,2013-08-18 12:20:00,
2013-08-18 06:25:00,45.8,40.0,29.90,SSW,196,1.0,1.0,80,0.00,,,0.00,Wunderground v.1.15,2013-08-18 12:25:00,
2013-08-18 06:30:00,45.7,39.9,29.90,SSW,196,1.0,1.0,80,0.00,,,0.00,Wunderground v.1.15,2013-08-18 12:30:00,
2013-08-18 06:39:00,45.6,40.1,29.90,South,178,1.0,1.0,81,0.00,,,0.00,Wunderground v.1.15,2013-08-18 12:39:00,
2013-08-18 06:45:00,45.8,40.0,29.90,SE,134,0.0,1.0,80,0.00,,,0.00,Wunderground v.1.15,2013-08-18 12:45:00,
2013-08-18 06:50:00,45.9,40.4,29.90,ESE,103,0.0,0.0,81,0.00,,,0.00,Wunderground v.1.15,2013-08-18 12:50:00,
2013-08-18 06:55:00,45.9,40.1,29.90,East,84,0.0,0.0,80,0.00,,,0.00,Wunderground v.1.15,2013-08-18 12:55:00,
2013-08-18 07:00:00,45.9,40.4,29.90,ENE,74,0.0,0.0,81,0.00,,,0.00,Wunderground v.1.15,2013-08-18 13:00:00,
2013-08-18 07:09:00,46.3,40.8,29.91,SE,140,0.0,1.0,81,0.00,,,0.00,Wunderground v.1.15,2013-08-18 13:09:00,
2013-08-18 07:14:00,46.5,40.7,29.91,ESE,107,0.0,1.0,80,0.00,,,0.00,Wunderground v.1.15,2013-08-18 13:14:00,
2013-08-18 07:19:00,46.8,41.0,29.91,NNE,18,0.0,0.0,80,0.00,,,0.00,Wunderground v.1.15,2013-08-18 13:19:00,
2013-08-18 07:24:00,46.9,41.1,29.91,SE,130,1.0,1.0,80,0.00,,,0.00,Wunderground v.1.15,2013-08-18 13:24:00,
2013-08-18 07:29:00,47.0,41.1,29.91,SSE,168,1.0,1.0,80,0.00,,,0.00,Wunderground v.1.15,2013-08-18 13:29:00,
2013-08-18 07:35:00,47.0,41.1,29.91,SSE,168,1.0,1.0,80,0.00,,,0.00,Wunderground v.1.15,2013-08-18 13:35:00,
2013-08-18 07:44:00,47.3,41.4,29.91,SSE,168,0.0,0.0,80,0.00,,,0.00,Wunderground v.1.15,2013-08-18 13:44:00,
2013-08-18 07:54:00,47.3,41.8,29.91,SSE,168,0.0,0.0,81,0.00,,,0.00,Wunderground v.1.15,2013-08-18 13:54:00,
2013-08-18 08:00:00,47.4,41.9,29.91,SSE,168,0.0,0.0,81,0.00,,,0.00,Wunderground v.1.15,2013-08-18 14:00:00,
2013-08-18 08:09:00,48.0,42.4,29.91,SSE,168,0.0,0.0,81,0.00,,,0.00,Wunderground v.1.15,2013-08-18 14:09:00,
2013-08-18 08:15:00,48.7,43.1,29.91,SSE,168,0.0,0.0,81,0.00,,,0.00,Wunderground v.1.15,2013-08-18 14:15:00,
2013-08-18 08:20:00,49.3,43.4,29.90,SSE,168,0.0,0.0,80,0.00,,,0.00,Wunderground v.1.15,2013-08-18 14:20:00,
2013-08-18 08:30:00,50.9,44.6,29.91,SSE,168,0.0,0.0,79,0.00,,,0.00,Wunderground v.1.15,2013-08-18 14:30:00,
2013-08-18 08:39:00,52.6,45.6,29.90,SSE,168,0.0,0.0,77,0.00,,,0.00,Wunderground v.1.15,2013-08-18 14:39:00,
2013-08-18 08:45:00,53.6,45.9,29.90,SSE,168,0.0,0.0,75,0.00,,,0.00,Wunderground v.1.15,2013-08-18 14:45:00,
2013-08-18 08:50:00,54.8,46.7,29.90,SSE,168,0.0,0.0,74,0.00,,,0.00,Wunderground v.1.15,2013-08-18 14:50:00,
2013-08-18 08:55:00,56.1,47.9,29.90,SSE,168,0.0,0.0,74,0.00,,,0.00,Wunderground v.1.15,2013-08-18 14:55:00,
2013-08-18 09:00:00,57.5,46.6,29.90,SSE,168,0.0,0.0,67,0.00,,,0.00,Wunderground v.1.15,2013-08-18 15:00:00,
2013-08-18 09:10:00,59.5,48.1,29.90,SSE,168,0.0,0.0,66,0.00,,,0.00,Wunderground v.1.15,2013-08-18 15:10:00,
2013-08-18 09:19:00,62.3,49.1,29.89,SSE,168,0.0,0.0,62,0.00,,,0.00,Wunderground v.1.15,2013-08-18 15:19:00,
2013-08-18 09:24:00,64.8,48.7,29.89,South,189,0.0,0.0,56,0.00,,,0.00,Wunderground v.1.15,2013-08-18 15:24:00,
2013-08-18 09:29:00,66.8,48.1,29.89,NW,317,0.0,3.0,51,0.00,,,0.00,Wunderground v.1.15,2013-08-18 15:29:00,
2013-08-18 09:35:00,68.1,46.5,29.88,NNW,343,2.0,4.0,46,0.00,,,0.00,Wunderground v.1.15,2013-08-18 15:35:00,
2013-08-18 09:40:00,68.8,45.4,29.88,NNW,329,2.0,4.0,43,0.00,,,0.00,Wunderground v.1.15,2013-08-18 15:40:00,
2013-08-18 09:45:00,69.3,45.2,29.88,NNW,336,2.0,4.0,42,0.00,,,0.00,Wunderground v.1.15,2013-08-18 15:45:00,
2013-08-18 09:54:00,69.8,43.7,29.88,NNW,334,3.0,4.0,39,0.00,,,0.00,Wunderground v.1.15,2013-08-18 15:54:00,
2013-08-18 10:00:00,70.1,44.0,29.88,NNW,331,3.0,3.0,39,0.00,,,0.00,Wunderground v.1.15,2013-08-18 16:00:00,
2013-08-18 10:09:00,71.1,42.8,29.88,NW,325,2.0,3.0,36,0.00,,,0.00,Wunderground v.1.15,2013-08-18 16:09:00,
2013-08-18 10:14:00,71.0,44.1,29.88,NNW,328,3.0,3.0,38,0.00,,,0.00,Wunderground v.1.15,2013-08-18 16:14:00,
2013-08-18 10:19:00,71.3,43.7,29.88,NNW,330,3.0,3.0,37,0.00,,,0.00,Wunderground v.1.15,2013-08-18 16:19:00,
2013-08-18 10:24:00,71.8,44.1,29.88,NW,326,2.0,5.0,37,0.00,,,0.00,Wunderground v.1.15,2013-08-18 16:24:00,
2013-08-18 10:30:00,72.4,43.9,29.88,NW,322,2.0,4.0,36,0.00,,,0.00,Wunderground v.1.15,2013-08-18 16:30:00,
2013-08-18 10:39:00,72.3,43.8,29.88,NNW,339,3.0,7.0,36,0.00,,,0.00,Wunderground v.1.15,2013-08-18 16:39:00,
2013-08-18 10:45:00,72.4,43.2,29.88,NNW,331,4.0,7.0,35,0.00,,,0.00,Wunderground v.1.15,2013-08-18 16:45:00,
2013-08-18 10:55:00,74.0,43.8,29.88,NNW,345,3.0,6.0,34,0.00,,,0.00,Wunderground v.1.15,2013-08-18 16:55:00,
2013-08-18 11:00:00,73.3,44.0,29.88,WNW,301,4.0,4.0,35,0.00,,,0.00,Wunderground v.1.15,2013-08-18 17:00:00,
2013-08-18 11:09:00,73.0,43.0,29.88,NNW,338,4.0,4.0,34,0.00,,,0.00,Wunderground v.1.15,2013-08-18 17:09:00,
2013-08-18 11:14:00,73.3,43.2,29.88,NW,322,4.0,7.0,34,0.00,,,0.00,Wunderground v.1.15,2013-08-18 17:14:00,
2013-08-18 11:19:00,73.7,44.3,29.87,North,349,3.0,3.0,35,0.00,,,0.00,Wunderground v.1.15,2013-08-18 17:19:00,
2013-08-18 11:29:00,74.4,42.6,29.87,NW,324,3.0,5.0,32,0.00,,,0.00,Wunderground v.1.15,2013-08-18 17:29:00,
2013-08-18 11:35:00,74.2,44.0,29.87,NNW,333,2.0,5.0,34,0.00,,,0.00,Wunderground v.1.15,2013-08-18 17:35:00,
2013-08-18 11:44:00,75.3,42.6,29.86,NNW,339,3.0,3.0,31,0.00,,,0.00,Wunderground v.1.15,2013-08-18 17:44:00,
2013-08-18 11:49:00,75.3,44.2,29.86,NNE,23,3.0,3.0,33,0.00,,,0.00,Wunderground v.1.15,2013-08-18 17:49:00,
2013-08-18 11:54:00,75.4,42.7,29.86,ENE,75,3.0,3.0,31,0.00,,,0.00,Wunderground v.1.15,2013-08-18 17:54:00,
2013-08-18 12:00:00,75.4,43.5,29.86,NW,321,4.0,4.0,32,0.00,,,0.00,Wunderground v.1.15,2013-08-18 18:00:00,
2013-08-18 12:09:00,76.0,44.8,29.85,NW,319,2.0,2.0,33,0.00,,,0.00,Wunderground v.1.15,2013-08-18 18:09:00,
2013-08-18 12:15:00,76.1,42.4,29.85,NE,36,3.0,3.0,30,0.00,,,0.00,Wunderground v.1.15,2013-08-18 18:15:00,
2013-08-18 12:20:00,76.6,42.8,29.85,NW,316,3.0,5.0,30,0.00,,,0.00,Wunderground v.1.15,2013-08-18 18:20:00,
2013-08-18 12:25:00,76.4,45.2,29.85,NNW,333,4.0,5.0,33,0.00,,,0.00,Wunderground v.1.15,2013-08-18 18:25:00,
2013-08-18 12:30:00,76.4,41.8,29.84,NNW,338,3.0,3.0,29,0.00,,,0.00,Wunderground v.1.15,2013-08-18 18:30:00,
2013-08-18 12:39:00,77.5,41.8,29.84,NNW,334,1.0,2.0,28,0.00,,,0.00,Wunderground v.1.15,2013-08-18 18:39:00,
2013-08-18 12:44:00,77.4,42.6,29.84,NW,321,2.0,7.0,29,0.00,,,0.00,Wunderground v.1.15,2013-08-18 18:44:00,
2013-08-18 12:50:00,77.1,42.4,29.84,NW,325,4.0,6.0,29,0.00,,,0.00,Wunderground v.1.15,2013-08-18 18:50:00,
2013-08-18 12:55:00,77.2,41.6,29.83,NNW,333,4.0,6.0,28,0.00,,,0.00,Wunderground v.1.15,2013-08-18 18:55:00,
2013-08-18 13:00:00,77.2,41.6,29.83,NNW,338,3.0,4.0,28,0.00,,,0.00,Wunderground v.1.15,2013-08-18 19:00:00,
2013-08-18 13:09:00,77.1,41.5,29.83,NNW,327,3.0,6.0,28,0.00,,,0.00,Wunderground v.1.15,2013-08-18 19:09:00,
2013-08-18 13:15:00,77.7,41.0,29.83,NW,325,3.0,6.0,27,0.00,,,0.00,Wunderground v.1.15,2013-08-18 19:15:00,
2013-08-18 13:24:00,77.6,41.0,29.83,NW,316,5.0,5.0,27,0.00,,,0.00,Wunderground v.1.15,2013-08-18 19:24:00,
2013-08-18 13:29:00,77.8,41.1,29.83,NW,325,4.0,5.0,27,0.00,,,0.00,Wunderground v.1.15,2013-08-18 19:29:00,
2013-08-18 13:39:00,78.8,42.0,29.82,WSW,241,4.0,4.0,27,0.00,,,0.00,Wunderground v.1.15,2013-08-18 19:39:00,
2013-08-18 13:44:00,78.5,40.7,29.83,NNW,333,4.0,5.0,26,0.00,,,0.00,Wunderground v.1.15,2013-08-18 19:44:00,
2013-08-18 13:54:00,77.5,41.8,29.83,NNW,329,7.0,7.0,28,0.00,,,0.00,Wunderground v.1.15,2013-08-18 19:54:00,
2013-08-18 14:00:00,77.8,39.1,29.82,NNW,342,5.0,5.0,25,0.00,,,0.00,Wunderground v.1.15,2013-08-18 20:00:00,
2013-08-18 14:10:00,77.9,38.2,29.82,ENE,57,2.0,3.0,24,0.00,,,0.00,Wunderground v.1.15,2013-08-18 20:10:00,
2013-08-18 14:15:00,76.9,40.4,29.83,East,88,2.0,3.0,27,0.00,,,0.00,Wunderground v.1.15,2013-08-18 20:15:00,
2013-08-18 14:20:00,76.4,41.8,29.83,SW,232,2.0,6.0,29,0.00,,,0.00,Wunderground v.1.15,2013-08-18 20:20:00,
2013-08-18 14:30:00,76.5,41.9,29.82,SW,226,3.0,3.0,29,0.00,,,0.00,Wunderground v.1.15,2013-08-18 20:30:00,
2013-08-18 14:40:00,77.0,42.3,29.82,WSW,238,2.0,3.0,29,0.00,,,0.00,Wunderground v.1.15,2013-08-18 20:40:00,
2013-08-18 14:45:00,76.4,39.0,29.82,East,86,4.0,4.0,26,0.00,,,0.00,Wunderground v.1.15,2013-08-18 20:45:00,
2013-08-18 14:50:00,75.6,39.2,29.82,East,92,6.0,9.0,27,0.00,,,0.00,Wunderground v.1.15,2013-08-18 20:50:00,
2013-08-18 15:00:00,74.6,38.4,29.82,ENE,74,7.0,7.0,27,0.00,,,0.00,Wunderground v.1.15,2013-08-18 21:00:00,
2013-08-18 15:09:00,75.1,39.8,29.82,ESE,103,5.0,5.0,28,0.00,,,0.00,Wunderground v.1.15,2013-08-18 21:09:00,
2013-08-18 15:14:00,74.9,39.6,29.83,NE,56,6.0,10.0,28,0.00,,,0.00,Wunderground v.1.15,2013-08-18 21:14:00,
2013-08-18 15:19:00,74.4,40.9,29.83,NE,53,6.0,6.0,30,0.00,,,0.00,Wunderground v.1.15,2013-08-18 21:19:00,
2013-08-18 15:24:00,74.0,40.6,29.83,East,97,5.0,8.0,30,0.00,,,0.00,Wunderground v.1.15,2013-08-18 21:24:00,
2013-08-18 15:29:00,73.1,40.7,29.83,East,85,7.0,14.0,31,0.00,,,0.00,Wunderground v.1.15,2013-08-18 21:29:00,
2013-08-18 15:39:00,71.1,42.0,29.83,East,88,7.0,7.0,35,0.00,,,0.00,Wunderground v.1.15,2013-08-18 21:39:00,
2013-08-18 15:44:00,70.6,43.1,29.83,ENE,71,5.0,7.0,37,0.00,,,0.00,Wunderground v.1.15,2013-08-18 21:44:00,
2013-08-18 15:49:00,70.3,43.5,29.83,ENE,70,3.0,3.0,38,0.00,,,0.00,Wunderground v.1.15,2013-08-18 21:49:00,
2013-08-18 15:54:00,70.0,43.9,29.83,South,175,2.0,3.0,39,0.00,,,0.00,Wunderground v.1.15,2013-08-18 21:54:00,
2013-08-18 16:00:00,69.4,44.7,29.83,ENE,71,3.0,3.0,41,0.00,,,0.00,Wunderground v.1.15,2013-08-18 22:00:00,
2013-08-18 16:10:00,68.1,47.7,29.83,SW,221,2.0,3.0,48,0.00,,,0.01,Wunderground v.1.15,2013-08-18 22:10:00,
2013-08-18 16:15:00,63.8,53.8,29.85,ESE,104,1.0,3.0,70,0.31,,,0.04,Wunderground v.1.15,2013-08-18 22:15:00,
2013-08-18 16:20:00,60.5,54.3,29.86,ESE,104,1.0,1.0,80,0.62,,,0.07,Wunderground v.1.15,2013-08-18 22:20:00,
2013-08-18 16:29:00,57.7,53.5,29.88,East,99,1.0,6.0,86,0.74,,,0.24,Wunderground v.1.15,2013-08-18 22:29:00,
2013-08-18 16:39:00,56.0,51.6,29.89,ENE,69,3.0,10.0,85,0.15,,,0.35,Wunderground v.1.15,2013-08-18 22:39:00,
2013-08-18 16:44:00,55.2,51.1,29.89,NE,51,4.0,10.0,86,0.15,,,0.36,Wunderground v.1.15,2013-08-18 22:44:00,
2013-08-18 16:49:00,54.5,50.4,29.89,ENE,66,3.0,3.0,86,0.08,,,0.36,Wunderground v.1.15,2013-08-18 22:49:00,
2013-08-18 17:00:00,54.2,50.1,29.88,East,99,5.0,5.0,86,0.00,,,0.36,Wunderground v.1.15,2013-08-18 23:00:00,
2013-08-18 17:10:00,54.4,50.9,29.88,NE,53,1.0,2.0,88,0.00,,,0.36,Wunderground v.1.15,2013-08-18 23:10:00,
2013-08-18 17:15:00,54.5,51.0,29.89,East,81,1.0,2.0,88,0.00,,,0.36,Wunderground v.1.15,2013-08-18 23:15:00,
2013-08-18 17:20:00,54.7,51.5,29.89,ENE,78,2.0,2.0,89,0.00,,,0.36,Wunderground v.1.15,2013-08-18 23:20:00,
2013-08-18 17:30:00,55.2,52.3,29.88,East,94,2.0,2.0,90,0.00,,,0.36,Wunderground v.1.15,2013-08-18 23:30:00,
2013-08-18 17:40:00,55.7,52.5,29.88,NE,46,1.0,2.0,89,0.00,,,0.36,Wunderground v.1.15,2013-08-18 23:40:00,
2013-08-18 17:45:00,55.8,52.3,29.88,East,86,1.0,2.0,88,0.00,,,0.36,Wunderground v.1.15,2013-08-18 23:45:00,
2013-08-18 17:50:00,55.9,52.4,29.88,ENE,67,1.0,1.0,88,0.00,,,0.36,Wunderground v.1.15,2013-08-18 23:50:00,
2013-08-18 18:00:00,56.7,53.2,29.87,ENE,65,1.0,3.0,88,0.00,,,0.36,Wunderground v.1.15,2013-08-19 00:00:00,
2013-08-18 18:09:00,57.1,53.6,29.87,ENE,74,1.0,1.0,88,0.00,,,0.36,Wunderground v.1.15,2013-08-19 00:09:00,
2013-08-18 18:14:00,57.2,53.7,29.87,ENE,74,0.0,1.0,88,0.00,,,0.36,Wunderground v.1.15,2013-08-19 00:14:00,
2013-08-18 18:19:00,57.4,53.2,29.86,South,172,0.0,0.0,86,0.00,,,0.36,Wunderground v.1.15,2013-08-19 00:19:00,
2013-08-18 18:25:00,57.6,53.8,29.86,ENE,67,1.0,1.0,87,0.00,,,0.36,Wunderground v.1.15,2013-08-19 00:25:00,
2013-08-18 18:30:00,57.7,53.9,29.86,North,355,0.0,0.0,87,0.00,,,0.36,Wunderground v.1.15,2013-08-19 00:30:00,
2013-08-18 18:39:00,57.5,54.0,29.86,East,82,0.0,0.0,88,0.00,,,0.36,Wunderground v.1.15,2013-08-19 00:39:00,
2013-08-18 18:44:00,57.5,54.0,29.86,East,92,1.0,1.0,88,0.00,,,0.36,Wunderground v.1.15,2013-08-19 00:44:00,
2013-08-18 18:49:00,57.5,54.3,29.86,East,92,1.0,1.0,89,0.00,,,0.36,Wunderground v.1.15,2013-08-19 00:49:00,
2013-08-18 18:55:00,57.3,54.1,29.86,East,92,2.0,2.0,89,0.00,,,0.36,Wunderground v.1.15,2013-08-19 00:55:00,
2013-08-18 19:00:00,57.2,54.0,29.86,East,92,2.0,2.0,89,0.00,,,0.36,Wunderground v.1.15,2013-08-19 01:00:00,
2013-08-18 19:09:00,57.0,53.8,29.86,East,87,3.0,3.0,89,0.00,,,0.36,Wunderground v.1.15,2013-08-19 01:09:00,
2013-08-18 19:14:00,57.0,53.8,29.86,East,101,4.0,5.0,89,0.00,,,0.36,Wunderground v.1.15,2013-08-19 01:14:00,
2013-08-18 19:20:00,56.9,53.7,29.87,East,90,4.0,4.0,89,0.00,,,0.36,Wunderground v.1.15,2013-08-19 01:20:00,
2013-08-18 19:29:00,56.8,53.9,29.87,East,91,2.0,2.0,90,0.00,,,0.36,Wunderground v.1.15,2013-08-19 01:29:00,
2013-08-18 19:35:00,56.6,54.0,29.88,East,91,0.0,2.0,91,0.00,,,0.36,Wunderground v.1.15,2013-08-19 01:35:00,
2013-08-18 19:44:00,56.5,53.9,29.88,East,82,2.0,2.0,91,0.00,,,0.36,Wunderground v.1.15,2013-08-19 01:44:00,
2013-08-18 19:49:00,56.4,53.8,29.88,East,98,3.0,7.0,91,0.00,,,0.36,Wunderground v.1.15,2013-08-19 01:49:00,
2013-08-18 20:00:00,56.3,53.1,29.89,East,80,4.0,4.0,89,0.00,,,0.36,Wunderground v.1.15,2013-08-19 02:00:00,
2013-08-18 20:09:00,56.2,53.0,29.89,East,89,3.0,3.0,89,0.00,,,0.36,Wunderground v.1.15,2013-08-19 02:09:00,
2013-08-18 20:14:00,56.0,52.5,29.89,East,84,3.0,3.0,88,0.00,,,0.36,Wunderground v.1.15,2013-08-19 02:14:00,
2013-08-18 20:20:00,55.9,52.7,29.89,East,92,2.0,5.0,89,0.00,,,0.36,Wunderground v.1.15,2013-08-19 02:20:00,
2013-08-18 20:25:00,55.9,52.4,29.90,ENE,78,4.0,5.0,88,0.00,,,0.36,Wunderground v.1.15,2013-08-19 02:25:00,
2013-08-18 20:30:00,55.8,52.3,29.90,ENE,57,4.0,4.0,88,0.00,,,0.36,Wunderground v.1.15,2013-08-19 02:30:00,
2013-08-18 20:39:00,55.7,52.5,29.90,East,86,3.0,5.0,89,0.00,,,0.36,Wunderground v.1.15,2013-08-19 02:39:00,
2013-08-18 20:44:00,55.5,52.3,29.89,East,98,4.0,5.0,89,0.00,,,0.36,Wunderground v.1.15,2013-08-19 02:44:00,
2013-08-18 20:50:00,55.4,52.2,29.89,ESE,103,4.0,8.0,89,0.00,,,0.36,Wunderground v.1.15,2013-08-19 02:50:00,
2013-08-18 20:55:00,55.4,51.6,29.90,ENE,70,6.0,9.0,87,0.00,,,0.36,Wunderground v.1.15,2013-08-19 02:55:00,
2013-08-18 21:00:00,55.5,52.0,29.90,ENE,68,8.0,8.0,88,0.00,,,0.36,Wunderground v.1.15,2013-08-19 03:00:00,
2013-08-18 21:10:00,55.3,51.8,29.91,ENE,69,6.0,8.0,88,0.00,,,0.36,Wunderground v.1.15,2013-08-19 03:10:00,
2013-08-18 21:15:00,55.3,51.5,29.91,East,92,7.0,9.0,87,0.00,,,0.36,Wunderground v.1.15,2013-08-19 03:15:00,
2013-08-18 21:20:00,55.4,51.6,29.91,East,88,7.0,7.0,87,0.00,,,0.36,Wunderground v.1.15,2013-08-19 03:20:00,
2013-08-18 21:29:00,55.3,51.5,29.92,East,79,5.0,8.0,87,0.00,,,0.36,Wunderground v.1.15,2013-08-19 03:29:00,
2013-08-18 21:35:00,55.3,51.5,29.92,ENE,67,5.0,8.0,87,0.00,,,0.36,Wunderground v.1.15,2013-08-19 03:35:00,
2013-08-18 21:45:00,55.2,51.4,29.93,East,82,4.0,8.0,87,0.00,,,0.36,Wunderground v.1.15,2013-08-19 03:45:00,
2013-08-18 21:54:00,55.0,51.5,29.93,East,90,4.0,8.0,88,0.00,,,0.36,Wunderground v.1.15,2013-08-19 03:54:00,
2013-08-18 22:00:00,55.0,51.5,29.94,East,86,4.0,4.0,88,0.00,,,0.36,Wunderground v.1.15,2013-08-19 04:00:00,
2013-08-18 22:04:00,54.9,51.4,29.94,East,90,4.0,6.0,88,0.00,,,0.36,Wunderground v.1.15,2013-08-19 04:04:00,
2013-08-18 22:09:00,54.8,51.6,29.94,ENE,76,4.0,4.0,89,0.00,,,0.36,Wunderground v.1.15,2013-08-19 04:09:00,
2013-08-18 22:15:00,54.7,51.5,29.94,East,84,3.0,5.0,89,0.00,,,0.36,Wunderground v.1.15,2013-08-19 04:15:00,
2013-08-18 22:25:00,54.6,51.4,29.94,East,83,4.0,4.0,89,0.00,,,0.36,Wunderground v.1.15,2013-08-19 04:25:00,
2013-08-18 22:30:00,54.5,51.3,29.94,East,92,3.0,3.0,89,0.00,,,0.36,Wunderground v.1.15,2013-08-19 04:30:00,
2013-08-18 22:39:00,54.4,51.2,29.94,ENE,78,3.0,3.0,89,0.00,,,0.36,Wunderground v.1.15,2013-08-19 04:39:00,
2013-08-18 22:45:00,54.4,51.2,29.94,East,82,3.0,3.0,89,0.00,,,0.36,Wunderground v.1.15,2013-08-19 04:45:00,
2013-08-18 22:50:00,54.4,51.2,29.95,East,93,3.0,3.0,89,0.00,,,0.36,Wunderground v.1.15,2013-08-19 04:50:00,
2013-08-18 23:00:00,54.4,51.2,29.95,ENE,74,3.0,4.0,89,0.00,,,0.36,Wunderground v.1.15,2013-08-19 05:00:00,
2013-08-18 23:10:00,54.3,51.1,29.95,East,90,5.0,6.0,89,0.00,,,0.36,Wunderground v.1.15,2013-08-19 05:10:00,
2013-08-18 23:19:00,54.4,51.2,29.95,ENE,76,7.0,7.0,89,0.00,,,0.36,Wunderground v.1.15,2013-08-19 05:19:00,
2013-08-18 23:24:00,54.4,51.2,29.95,ENE,66,7.0,8.0,89,0.00,,,0.36,Wunderground v.1.15,2013-08-19 05:24:00,
2013-08-18 23:30:00,54.4,51.2,29.94,ENE,75,7.0,9.0,89,0.00,,,0.36,Wunderground v.1.15,2013-08-19 05:30:00,
2013-08-18 23:39:00,54.4,51.2,29.95,ENE,63,8.0,8.0,89,0.00,,,0.36,Wunderground v.1.15,2013-08-19 05:39:00,
2013-08-18 23:44:00,54.5,51.3,29.95,East,82,8.0,8.0,89,0.00,,,0.36,Wunderground v.1.15,2013-08-19 05:44:00,
2013-08-18 23:49:00,54.5,51.3,29.95,East,101,6.0,7.0,89,0.00,,,0.36,Wunderground v.1.15,2013-08-19 05:49:00,
2013-08-18 23:54:00,54.4,51.2,29.95,East,92,6.0,7.0,89,0.00,,,0.36,Wunderground v.1.15,2013-08-19 05:54:00,